This is the latest recevied weather packets stored in our database for station/object GUNLAK-WX. If no packets are shown the sender has not sent any weather packets the latest 10 day(s).
| Time | Temp. | Humidity | Pressure | Rain* | Wind** | Luminosity | Snow |
|---|---|---|---|---|---|---|---|
| 1777066290 | 19.44° C | 68% | 979.8 hPa | 0 mm | - | - | - |
| 1777065376 | 20° C | 68% | 979.8 hPa | 0 mm | - | - | - |
| 1777064499 | 20° C | 68% | 979.8 hPa | 0 mm | - | - | - |
| 1777063579 | 20° C | 70% | 979.3 hPa | 0 mm | - | - | - |
| 1777062691 | 20° C | 76% | 979.3 hPa | 0 mm | - | - | - |
| 1777061778 | 20° C | 76% | 979.2 hPa | 0 mm | - | - | - |
| 1777060898 | 20° C | 76% | 979.2 hPa | 0 mm | - | - | - |
| 1777059978 | 19.44° C | 64% | 979.5 hPa | 0 mm | - | - | - |
| 1777059088 | 20.56° C | 64% | 979.5 hPa | 0 mm | - | - | - |
| 1777058178 | 20.56° C | 64% | 979.6 hPa | 0 mm | - | - | - |
| 1777057299 | 22.22° C | 64% | 979.6 hPa | 0 mm | - | - | - |
| 1777056377 | 23.33° C | 58% | 979.3 hPa | 0 mm | - | - | - |
| 1777055491 | 23.89° C | 57% | 979.1 hPa | 0 mm | - | - | - |
| 1777054577 | 23.33° C | 57% | 979.1 hPa | 0 mm | - | - | - |
| 1777053703 | 23.89° C | 57% | 979.1 hPa | 0 mm | - | - | - |
| 1777052777 | 23.89° C | 58% | 978.5 hPa | 0 mm | - | - | - |
| 1777051886 | 24.44° C | 52% | 979 hPa | 0 mm | - | - | - |
| 1777050977 | 23.89° C | 52% | 979 hPa | 0 mm | - | - | - |
| 1777050096 | 24.44° C | 52% | 979 hPa | 0 mm | - | - | - |
| 1777049176 | 24.44° C | 53% | 978.5 hPa | 0 mm | - | - | - |
| 1777048287 | 25° C | 52% | 978.6 hPa | 0 mm | - | - | - |
| 1777047376 | 25° C | 52% | 978.6 hPa | 0 mm | - | - | - |
| 1777046501 | 24.44° C | 52% | 978.6 hPa | 0 mm | - | - | - |
| 1777045577 | 23.89° C | 53% | 978.2 hPa | 0 mm | - | - | - |
| 1777044693 | 23.89° C | 53% | 978.8 hPa | 0 mm | - | - | - |
* Rain latest hour (hover to see other rain measurements)
** Current wind speed in m/s (hover to see current wind gust speed)